GW1307 Weather Reports


time (UTC)temp
F
wind
direction
speed
knots
gust
knots
rain 1hr
in
rain 24hr
in
rain mn
in
humidity
%
barometer
mb
20260505171615 56 165 3.5 6.1 0.00 0.00 0.00 77 1016.5
20260505171519 58 355 0.0 0.0 0.00 0.00 0.00 71 1014.6
20260505170057 56 137 2.6 5.2 0.00 0.00 0.00 78 1016.5
20260505170022 57 355 0.0 0.9 0.00 0.00 0.00 71 1014.3
20260505164558 56 155 2.6 4.3 0.00 0.00 0.00 81 1016.4
20260505164535 57 43 0.0 2.6 0.00 0.00 0.00 72 1014.4
20260505163056 55 0 0.9 4.3 0.00 0.00 0.00 83 1016.0
20260505163015 57 248 0.0 2.6 0.00 0.00 0.00 72 1014.2
20260505161557 55 226 1.7 5.2 0.00 0.00 0.00 84 1016.1
20260505161512 56 196 0.0 1.7 0.00 0.00 0.00 74 1014.3
20260505153053 54 133 0.9 2.6 0.00 0.00 0.00 87 1015.9
20260505153013 55 217 0.0 2.6 0.00 0.00 0.00 74 1014.1
20260505151558 54 111 0.9 2.6 0.00 0.00 0.00 88 1015.8
20260505151514 55 254 0.0 0.0 0.00 0.00 0.00 75 1013.9
20260505150111 54 9 0.0 1.7 0.00 0.00 0.00 88 1015.6
20260505124559 53 9 0.9 2.6 0.00 0.00 0.00 87 1015.0
20260505124503 55 317 0.0 0.0 0.00 0.00 0.00 74 1013.5
20260505123102 53 30 1.7 2.6 0.00 0.00 0.00 87 1015.0
20260505123002 55 318 0.0 0.9 0.00 0.00 0.00 75 1013.5
20260505121630 53 22 1.7 2.6 0.00 0.00 0.00 87 1015.1
20260505121600 55 317 0.0 0.9 0.00 0.00 0.00 74 1013.4
20260505120057 53 323 0.9 2.6 0.00 0.00 0.00 86 1015.1
20260505114602 55 317 0.0 0.9 0.00 0.00 0.00 73 1013.6
20260505114557 53 334 0.0 1.7 0.00 0.00 0.00 86 1015.0
20260505113105 53 309 1.7 2.6 0.00 0.00 0.00 86 1015.2
20260505113102 55 49 0.0 0.0 0.00 0.00 0.00 73 1013.6
20260505111559 55 49 0.0 0.0 0.00 0.00 0.00 72 1013.6
20260505110105 55 84 0.0 0.0 0.00 0.00 0.00 72 1013.6
20260505101600 53 9 1.7 2.6 0.00 0.00 0.00 86 1015.0
20260505101557 55 360 0.0 0.9 0.00 0.00 0.00 69 1013.7
20260505100136 53 9 0.9 2.6 0.00 0.00 0.00 85 1015.1
20260505100055 55 338 0.0 2.6 0.00 0.00 0.00 68 1013.8
20260505094556 55 285 0.9 2.6 0.00 0.00 0.00 68 1013.8
20260505093056 54 286 0.9 2.6 0.00 0.00 0.00 85 1015.2
20260505093050 55 355 0.0 1.7 0.00 0.00 0.00 69 1014.0
20260505091616 54 309 1.7 2.6 0.00 0.00 0.00 85 1015.5
20260505091556 56 292 0.0 0.9 0.00 0.00 0.00 70 1013.9
20260505090100 54 9 1.7 6.1 0.00 0.00 0.00 86 1015.6
20260505090056 56 128 0.0 0.0 0.00 0.00 0.00 71 1014.1
20260505084553 54 284 1.7 3.5 0.00 0.00 0.00 86 1015.6
20260505084550 56 76 0.0 2.6 0.00 0.00 0.00 71 1014.3
20260505083057 54 227 0.9 2.6 0.00 0.00 0.00 86 1015.6
20260505083049 56 32 0.9 3.5 0.00 0.00 0.00 69 1014.5
20260505081557 56 342 0.0 1.7 0.00 0.00 0.00 70 1014.3
20260505080054 53 309 0.9 5.2 0.00 0.00 0.00 86 1015.8
20260505080047 56 16 0.0 1.7 0.00 0.00 0.00 72 1014.4
20260505074602 57 38 0.0 1.7 0.00 0.00 0.00 74 1014.5
20260505074553 53 319 1.7 3.5 0.00 0.00 0.00 86 1015.8
20260505073100 53 334 1.7 7.0 0.00 0.00 0.00 86 1015.6
20260505073039 57 26 0.0 0.0 0.00 0.00 0.00 75 1014.4
20260505071552 53 346 1.7 5.2 0.00 0.00 0.00 86 1015.6
20260505071537 57 35 0.0 1.7 0.00 0.00 0.00 76 1014.3
20260505070057 53 31 3.5 9.6 0.00 0.00 0.00 85 1015.6
20260505070035 57 35 0.0 0.9 0.00 0.00 0.00 75 1014.0
20260505064602 53 327 3.5 7.8 0.00 0.00 0.00 85 1015.3
20260505064536 57 34 0.0 1.7 0.00 0.00 0.00 75 1014.1
20260505063054 54 338 2.6 7.8 0.00 0.00 0.00 85 1015.2
20260505063040 58 277 0.0 1.7 0.00 0.00 0.00 75 1014.2
20260505061555 54 321 5.2 8.7 0.00 0.00 0.00 85 1015.4
20260505061542 58 346 0.0 1.7 0.00 0.00 0.00 74 1013.9
20260505060059 54 346 4.3 7.8 0.00 0.00 0.00 84 1015.5
20260505060034 58 17 0.0 0.0 0.00 0.00 0.00 74 1013.9
20260505054620 54 329 3.5 7.0 0.00 0.00 0.00 84 1015.6
20260505054536 58 291 0.0 0.9 0.00 0.00 0.00 74 1014.2
20260505053057 54 17 3.5 7.0 0.00 0.00 0.00 83 1015.7
20260505053032 58 310 0.0 3.5 0.00 0.00 0.00 72 1014.3
20260505051555 54 336 3.5 7.0 0.00 0.00 0.00 83 1015.8
20260505051532 58 51 0.0 1.7 0.00 0.00 0.00 71 1014.5
20260505041605 56 336 0.9 7.0 0.00 0.00 0.00 81 1015.4
20260505041527 59 32 0.9 4.3 0.00 0.00 0.00 70 1013.9
20260505040058 56 228 5.2 10.4 0.00 0.00 0.00 81 1015.2
20260505040027 59 40 0.9 2.6 0.00 0.00 0.00 70 1013.7
20260505034601 56 261 3.5 9.6 0.00 0.00 0.00 81 1014.9
20260505034526 60 42 0.0 2.6 0.00 0.00 0.00 69 1013.4
20260505033057 56 221 6.1 14.8 0.00 0.00 0.00 81 1014.7
20260505033035 60 57 0.0 2.6 0.00 0.00 0.00 67 1013.2
20260505031605 56 221 4.3 13.0 0.00 0.00 0.00 81 1015.0
20260505031524 60 43 0.9 2.6 0.00 0.00 0.00 65 1013.0
20260505030103 56 233 8.7 16.5 0.00 0.00 0.00 81 1014.9
20260505030024 61 39 0.0 2.6 0.00 0.00 0.00 66 1013.2
20260505024607 56 187 9.6 15.6 0.00 0.00 0.00 81 1015.0
20260505024548 61 40 0.9 2.6 0.00 0.00 0.00 65 1013.2
20260505023104 56 178 8.7 14.8 0.00 0.00 0.00 80 1014.8
20260505023032 61 50 0.0 4.3 0.00 0.00 0.00 64 1013.1
20260505021558 57 189 8.7 18.2 0.00 0.00 0.00 80 1014.8
20260505021542 62 339 0.9 3.5 0.00 0.00 0.00 63 1013.0
20260505020105 57 175 10.4 17.4 0.00 0.00 0.00 79 1014.9
20260505020022 62 44 1.7 5.2 0.00 0.00 0.00 61 1013.0
20260505014556 57 161 11.3 15.6 0.00 0.00 0.00 76 1014.8
20260505014526 62 42 0.9 3.5 0.00 0.00 0.00 60 1013.0
20260505013056 58 183 7.8 15.6 0.00 0.00 0.00 76 1015.0
20260505013022 63 35 0.9 2.6 0.00 0.00 0.00 59 1012.9
20260505011554 59 207 8.7 14.8 0.00 0.00 0.00 74 1015.2
20260505011527 63 46 0.9 3.5 0.00 0.00 0.00 60 1013.2
20260505010111 59 221 7.0 16.5 0.00 0.00 0.00 74 1015.2
20260505010021 64 38 0.9 3.5 0.00 0.00 0.00 60 1013.1
20260505004600 58 170 11.3 17.4 0.00 0.00 0.00 75 1015.4
20260505004534 65 35 0.9 5.2 0.00 0.00 0.00 59 1013.4
20260505003119 58 183 11.3 18.2 0.00 0.00 0.00 75 1015.3
20260505003020 65 31 0.9 5.2 0.00 0.00 0.00 58 1013.3
20260505001609 58 175 12.2 17.4 0.00 0.00 0.00 76 1015.4
20260505001519 65 28 0.9 4.3 0.00 0.00 0.00 58 1013.2
20260505000020 65 68 0.9 4.3 0.00 0.00 0.00 57 1013.2
20260504234559 58 175 12.2 17.4 0.00 0.00 0.00 77 1015.3
20260504234518 66 40 0.9 4.3 0.00 0.00 0.00 57 1013.1
20260504233102 59 175 11.3 18.2 0.00 0.00 0.00 76 1015.4
20260504233018 65 30 0.9 4.3 0.00 0.00 0.00 59 1013.1
20260504231557 59 205 12.2 17.4 0.00 0.00 0.00 75 1015.3
20260504231516 65 40 1.7 3.5 0.00 0.00 0.00 58 1013.1
20260504230113 59 201 12.2 16.5 0.00 0.00 0.00 75 1015.4
20260504230016 66 46 0.9 5.2 0.00 0.00 0.00 57 1013.0
20260504224612 59 205 12.2 17.4 0.00 0.00 0.00 77 1015.4
20260504224515 68 46 0.9 4.3 0.00 0.00 0.00 54 1013.0
20260504223103 59 184 10.4 16.5 0.00 0.00 0.00 78 1015.6
20260504223015 68 47 0.9 7.0 0.00 0.00 0.00 54 1013.1
20260504221555 59 202 13.0 17.4 0.00 0.00 0.00 77 1015.7
20260504221513 67 293 0.9 3.5 0.00 0.00 0.00 55 1013.1
20260504220059 59 198 10.4 15.6 0.00 0.00 0.00 74 1016.1
20260504220018 66 187 0.9 3.5 0.00 0.00 0.00 54 1013.2
20260504214557 59 198 9.6 13.9 0.00 0.00 0.00 78 1016.2
20260504214513 66 186 0.0 3.5 0.00 0.00 0.00 54 1013.4
20260504213103 60 175 8.7 13.9 0.00 0.00 0.00 78 1016.0
20260504213012 67 279 0.0 7.0 0.00 0.00 0.00 54 1013.5
20260504211559 59 183 9.6 13.9 0.00 0.00 0.00 78 1016.2
20260504211510 67 5 0.9 6.1 0.00 0.00 0.00 54 1013.3
20260504210104 59 194 8.7 13.0 0.00 0.00 0.00 77 1016.5
20260504210010 69 240 0.0 2.6 0.00 0.00 0.00 51 1013.5
20260504204602 60 202 9.6 13.0 0.00 0.00 0.00 75 1016.1
20260504204514 67 56 0.9 3.5 0.00 0.00 0.00 54 1013.7
20260504203056 60 182 7.8 12.2 0.00 0.00 0.00 77 1016.1
20260504203008 67 191 1.7 7.0 0.00 0.00 0.00 53 1013.6
20260504201612 67 174 1.7 6.1 0.00 0.00 0.00 51 1013.6
20260504201559 59 185 7.8 13.0 0.00 0.00 0.00 78 1016.2
20260504200104 58 184 7.8 12.2 0.00 0.00 0.00 79 1016.4
20260504200005 66 232 1.7 6.1 0.00 0.00 0.00 52 1013.7
20260504194556 59 207 7.8 10.4 0.00 0.00 0.00 80 1016.4
20260504194506 67 104 0.0 3.5 0.00 0.00 0.00 52 1013.8
20260504193056 58 198 8.7 13.0 0.00 0.00 0.00 79 1016.5
20260504193001 65 165 0.9 5.2 0.00 0.00 0.00 53 1013.7
20260504191608 59 198 7.8 12.2 0.00 0.00 0.00 77 1016.6
20260504191559 65 207 0.0 4.3 0.00 0.00 0.00 53 1013.9
20260504190058 64 196 0.0 1.7 0.00 0.00 0.00 54 1014.0
20260504190055 59 198 7.0 10.4 0.00 0.00 0.00 77 1016.4
20260504184600 63 40 0.0 5.2 0.00 0.00 0.00 54 1013.9
20260504184555 60 203 5.2 8.7 0.00 0.00 0.00 75 1016.4
20260504183101 64 42 0.9 3.5 0.00 0.00 0.00 54 1013.9
20260504183054 60 153 4.3 10.4 0.00 0.00 0.00 75 1016.4
20260504181556 59 171 5.2 10.4 0.00 0.00 0.00 77 1016.3
20260504180058 58 175 6.1 10.4 0.00 0.00 0.00 77 1016.5
20260504180054 64 22 0.0 2.6 0.00 0.00 0.00 53 1014.0
20260504174559 58 165 7.0 9.6 0.00 0.00 0.00 78 1016.1
20260504174553 63 165 0.0 3.5 0.00 0.00 0.00 58 1013.7
20260504173101 58 150 5.2 9.6 0.00 0.00 0.00 78 1016.0
20260504173053 63 174 0.0 2.6 0.00 0.00 0.00 57 1013.6